STARLINK-35418

Last updated on Mon Oct 20 2025 00:02:07 GMT+0000 (Coordinated Universal Time)

1 65879U 25223AB 25292.25002315 -.01911118 00000+0 -21844-1 0 9990 2 65879 53.1591 234.9096 0001237 93.7696 47.5778 15.64692373 3734
UTC large
Height (km)
Speed (km/s)
/
Latitude / Longitude
Inclination (degrees)
Orbital Period (minutes)
Azimuth
Elevation
Range (km)
Doppler Factor

Next 0 passes for location: London (51.5072 / 0.1276)

Sorry there are no passes over London.